Flag for Switzerland Weather past 2 weeks in Liestal, Basel-Land, Switzerland

Now
61 °F

Broken clouds.


Feels Like: 61 °F
Forecast: 47 / 69 °F
Wind: 2 mph from North

Location: Bale-Mulhouse

Current Time: Oct 2, 2014 at 8:14:34 PM

Latest Report: Oct 2, 2014 at 8:00 PM


Visibility: N/A

Pressure: 30.30 "Hg

Humidity: 88%

Dew point: 57 °F

Location of LiestalLocation

Historic Weather in Liestal — Graph

°F

Liestal temperature yesterday

Maximum temperature yesterday: 72 °F (at 4:00 PM)
Minimum temperature yesterday: 55 °F (at 10:30 PM)
Average temperature yesterday: 62 °F

Past Weeks' High & Low Weather Summary

 TemperatureHumidityPressure
High79 °F (Sep 29, 2:30 PM)100% (Sep 18, 4:30 AM)30.36 "Hg (Sep 18, 4:30 AM)
Low39 °F (Sep 24, 4:30 AM)42% (Sep 28, 5:30 PM)29.86 "Hg (Sep 17, 7:00 PM)
Average60 °F83%30.15 "Hg
* Reported Sep 17 7:00 PM — Oct 2 7:00 PM, Liestal, Weather by CustomWeather, © 2014

Note: Actual official high and low records may vary slightly from our data, if they occured in-between our weather recording intervals... More about our weather records

Advertising

Liestal weather history for previous 24 hours

 ConditionsComfort  
Time TempWeatherWind HumidityBarometerVisibility
7:00 PM
Oct 2
64 °FScattered clouds.3 mph78%30.27 "HgN/A
6:30 PM66 °FScattered clouds.5 mph73%30.27 "HgN/A
6:00 PM68 °FPassing clouds.7 mph73%30.27 "HgN/A
5:30 PM68 °FPassing clouds.8 mph73%30.27 "HgN/A
5:00 PM68 °FPassing clouds.7 mph69%30.27 "HgN/A
4:30 PM70 °FPassing clouds.8 mph64%30.30 "HgN/A
4:00 PM70 °FPassing clouds.6 mph64%30.30 "HgN/A
3:30 PM68 °FPassing clouds.3 mph69%30.30 "HgN/A
3:00 PM68 °FPassing clouds.3 mph73%30.30 "HgN/A
2:30 PM68 °FPassing clouds.2 mph69%30.33 "HgN/A
2:00 PM66 °FPassing clouds.5 mph78%30.33 "HgN/A
1:30 PM64 °FScattered clouds.3 mph78%30.33 "HgN/A
1:00 PM64 °FScattered clouds.5 mph78%30.36 "HgN/A
12:30 PM61 °FScattered clouds.2 mph88%30.36 "HgN/A
12:00 PM59 °FPartly sunny.No wind94%30.36 "Hg4 mi
11:30 AM57 °FBroken clouds.2 mph100%30.36 "Hg3 mi
11:00 AM57 °FFog.No wind100%30.36 "Hg2 mi
10:30 AM55 °FFog.No wind100%30.36 "Hg1 mi
10:00 AM55 °FFog.No wind100%30.36 "Hg1 mi
9:30 AM55 °FFog.2 mph100%30.36 "Hg1 mi
9:00 AM55 °FFog.2 mph94%30.36 "Hg1 mi
8:30 AM54 °FFog.2 mph100%30.36 "Hg1 mi
8:00 AM54 °FCool.No wind94%30.36 "Hg1 mi
7:30 AM52 °FFog.2 mph100%30.36 "Hg1 mi
7:00 AM52 °FFog.2 mph94%30.33 "Hg1 mi
6:30 AM48 °FFog.1 mph100%30.33 "Hg1 mi
6:00 AM48 °FFog.2 mph94%30.33 "Hg1 mi
5:30 AM50 °FFog.No wind94%30.33 "Hg2 mi
5:00 AM50 °FFog.No wind100%30.33 "Hg2 mi
4:30 AM50 °FFog.2 mph100%30.33 "Hg2 mi
4:00 AM50 °FPassing clouds.2 mph94%30.33 "Hg1 mi
3:30 AM52 °FDense fog.3 mph94%30.36 "Hg1 mi
3:00 AM52 °FPartly cloudy.2 mph94%30.36 "Hg1 mi
2:30 AM54 °FFog.No wind94%30.36 "Hg1 mi
2:00 AM52 °FFog.2 mph100%30.36 "Hg1 mi
1:30 AM54 °FFog.3 mph94%30.36 "Hg2 mi
1:00 AM54 °FFog.No wind94%30.36 "Hg3 mi
12:30 AM55 °FLight fog.No wind94%30.36 "Hg1 mi
12:00 AM55 °FPassing clouds.No wind94%30.33 "Hg5 mi
11:30 PM
Oct 1
55 °FPassing clouds.2 mph100%30.36 "Hg6 mi
11:00 PM55 °FPassing clouds.No wind100%30.36 "HgN/A
10:30 PM55 °FPassing clouds.3 mph94%30.33 "HgN/A
10:00 PM57 °FPassing clouds.5 mph94%30.33 "HgN/A
9:30 PM57 °FPassing clouds.2 mph94%30.33 "HgN/A
9:00 PM59 °FPassing clouds.5 mph88%30.33 "HgN/A
8:30 PM59 °FPassing clouds.7 mph94%30.33 "HgN/A
8:00 PM61 °FPassing clouds.3 mph83%30.30 "HgN/A
Weather by CustomWeather, © 2014

See weather overviewHow to use our weather pages